Notices

What's New in latest Release from April 7th, 2021:

- Updated Glossary, including Speed of Maximum Gust, and Total Hourly Precipitation

- Updated national and regional climate services offices contacts and prices information

- Addition of station inventory lists for 1981-2010, 1971-2000, and 1961-1990 Normals.

If you haven't already, please take our survey and provide feedback about our website: https://eccc.sondage-survey.ca/f/LanguageSelection.aspx?s=442ca660-fcf1-47c0-95a9-59707d6fd709

Hourly Data Report for January 10, 2021

STE-ANNE-DE-BELLEVUE 1
QUEBEC
Current Station Operator: ECCC - MSC

45°25'38.000" N
73°55'45.000" W
39.00 m
702FHL8
71377
WVQ

Download Data

Hourly Data (January 2021)
Hourly Data Report for January 10, 2021
TIME
LST
Temp Definition
°C
Dew Point Definition
°C
Rel Hum Definition
%
Precip. Amount Definition
mm

Wind Dir Definition
10's deg

Wind Spd Definition
km/h
Visibility Definition
km
Stn Press Definition
kPa
Hmdx Definition


Wind Chill Definition


Weather Definition


00:00 -9.8 -10.8 93 0.0 31 3   101.55   -12 LegendNANA
01:00 -10.0 -10.8 93 0.0 22 2   101.61   -11 LegendNANA
02:00 -10.9 -11.9 92 0.0 29 2   101.70   -12 LegendNANA
03:00 -9.8 -10.7 94 0.0 23 3   101.77   -12 LegendNANA
04:00 -10.9 -12.1 90 0.0 26 3   101.80   -13 LegendNANA
05:00 -10.6 -11.7 92 0.0 24 6   101.83   -14 LegendNANA
06:00 -11.3 -12.6 90 0.0 25 6   101.89   -15 LegendNANA
07:00 -10.6 -11.9 90 0.0 24 6   101.94   -14 LegendNANA
08:00 -11.4 -12.7 90 0.0 23 8   102.00   -16 LegendNANA
09:00 -10.8 -12.3 89 0.0 24 10   102.10   -16 LegendNANA
10:00 -9.0 -10.7 87 0.0 25 13   102.13   -15 LegendNANA
11:00 -7.9 -9.9 86 0.0 27 12   102.15   -13 LegendNANA
12:00 -7.6 -9.6 86 0.0 24 11   102.07   -13 LegendNANA
13:00 -7.2 -9.4 85 0.0 25 13   102.04   -13 LegendNANA
14:00 -6.9 -9.1 84 0.0 26 13   102.02   -12 LegendNANA
15:00 -6.4 -8.7 84 0.0 25 12   102.06   -12 LegendNANA
16:00 -6.8 -9.2 83 0.0 23 13   102.07   -12 LegendNANA
17:00 -7.0 -9.3 84 0.0 24 12   102.11   -12 LegendNANA
18:00 -7.2 -9.4 84 0.0 25 13   102.15   -13 LegendNANA
19:00 -7.3 -9.4 85 0.0 27 14   102.17   -13 LegendNANA
20:00 -7.1 -9.1 86 0.0 26 10   102.18   -12 LegendNANA
21:00 -6.5 -8.5 85 0.0 25 9   102.16   -11 LegendNANA
22:00 -6.1 -8.4 84 0.0 29 7   102.14   -9 LegendNANA
23:00 -5.9 -8.0 85 0.0 20 7   102.10   -9 LegendNANA

Notes on Data Quality.

Legend

  • E = Estimated
  • M = Missing
  • NA = Not Available*
  • [empty] = Indicates an unobserved value
Date modified: